Location: Boiro
(42.6475°N, 8.8834°W)
Time: 17:09:26
(UTC+01:00)

Tiros 1 despin weight - Pass Details

Date: 07 December 2021
Orbit: 592 x 641 km, 48.2° (Epoch: 25 January)

Event Time Altitude Azimuth Distance (km) Brightness Sun altitude
Rises 18:50:38 0° 295° (WNW) 2,826 ? -8.8°
Reaches altitude 10° 18:52:56 10° 292° (WNW) 1,922 ? -9.2°
Maximum altitude 18:57:17 64° 212° (SSW) 657 ? -10.0°
Drops below altitude 10° 19:01:38 10° 130° (SE) 1,924 ? -10.7°
Sets 19:03:56 0° 128° (SE) 2,828 ? -11.1°
